Flag for Germany Weather past 2 weeks in Andernach, Rhineland-Palatinate, Germany

Now
45 °F

Passing clouds.


Feels Like: 41 °F
Forecast: 40 / 64 °F
Wind: 7 mph from North

Location: Buechel

Current Time: May 26, 2015 at 6:28:00 AM

Latest Report: May 26, 2015 at 5:20 AM


Visibility: N/A

Pressure: 30.04 "Hg

Humidity: 81%

Dew point: 39 °F

Location of AndernachLocation

Historic Weather in Andernach — Graph

°F

Andernach temperature yesterday

Maximum temperature yesterday: 57 °F (at 4:20 PM)
Minimum temperature yesterday: 50 °F (at 2:20 AM)
Average temperature yesterday: 53 °F

Past Weeks' High & Low Weather Summary

 TemperatureHumidityPressure
High75 °F (May 12, 2:20 PM)100% (May 15, 7:20 AM)30.33 "Hg (May 15, 7:20 AM)
Low37 °F (May 21, 5:20 AM)31% (May 11, 5:20 PM)29.71 "Hg (May 18, 7:20 PM)
Average54 °F66%30.07 "Hg
* Reported May 11 4:20 AM — May 26 4:20 AM, Andernach, Weather by CustomWeather, © 2015

Note: Actual official high and low records may vary slightly from our data, if they occured in-between our weather recording intervals... More about our weather records

Advertising

Andernach weather history for previous 24 hours

 ConditionsComfort  
Time TempWeatherWind HumidityBarometerVisibility
4:20 AM
Tue, May 26
45 °FPassing clouds.7 mph87%30.01 "HgN/A
3:20 AM45 °FQuite cool.7 mph87%30.01 "Hg6 mi
2:20 AM46 °FCool.8 mph82%30.01 "Hg6 mi
1:20 AM46 °FCool.8 mph87%30.01 "Hg5 mi
12:20 AM48 °FCool.7 mph82%30.01 "Hg6 mi
11:20 PM
Mon, May 25
50 °FCool.6 mph82%30.01 "Hg6 mi
10:20 PM50 °FCool.5 mph82%30.01 "Hg5 mi
9:20 PM52 °FCool.7 mph77%29.98 "Hg6 mi
8:20 PM54 °FCool.7 mph72%29.95 "Hg6 mi
7:20 PM55 °FCool.8 mph72%29.95 "Hg6 mi
6:20 PM54 °FCool.7 mph82%29.95 "Hg6 mi
5:20 PM52 °FCool.10 mph82%29.95 "Hg4 mi
4:20 PM57 °FCool.3 mph72%29.95 "Hg5 mi
3:20 PM54 °FCool.6 mph82%29.98 "Hg6 mi
2:20 PM55 °FCool.7 mph77%29.98 "Hg3 mi
1:20 PM55 °FCool.5 mph72%29.98 "Hg4 mi
12:20 PM54 °FCool.6 mph77%29.98 "Hg6 mi
11:20 AM54 °FCool.3 mph72%29.98 "Hg4 mi
10:20 AM52 °FCool.2 mph72%29.98 "Hg5 mi
9:20 AM52 °FCool.3 mph67%30.01 "Hg6 mi
8:20 AM52 °FCool.6 mph72%30.01 "Hg6 mi
7:20 AM50 °FCool.3 mph71%30.01 "Hg6 mi
6:20 AM50 °FCool.5 mph62%30.01 "Hg6 mi
Weather by CustomWeather, © 2015

See weather overviewHow to use our weather pages